#datetime,building,power
2022-08-30T00:00:00,mfh,18.97
2022-08-30T00:01:00,mfh,18.80
2022-08-30T00:02:00,mfh,19.17
2022-08-30T00:03:00,mfh,19.13
2022-08-30T00:04:00,mfh,19.91
2022-08-30T00:05:00,mfh,19.24
2022-08-30T00:06:00,mfh,18.44
2022-08-30T00:07:00,mfh,18.51
2022-08-30T00:08:00,mfh,18.46
2022-08-30T00:09:00,mfh,18.28
2022-08-30T00:10:00,mfh,18.89
2022-08-30T00:11:00,mfh,19.01
2022-08-30T00:12:00,mfh,18.96
2022-08-30T00:13:00,mfh,19.02
2022-08-30T00:14:00,mfh,18.34
2022-08-30T00:15:00,mfh,18.36
2022-08-30T00:16:00,mfh,18.35
2022-08-30T00:17:00,mfh,18.27
2022-08-30T00:18:00,mfh,18.25
2022-08-30T00:19:00,mfh,19.01
2022-08-30T00:20:00,mfh,19.00
2022-08-30T00:21:00,mfh,18.99
2022-08-30T00:22:00,mfh,19.16
2022-08-30T00:23:00,mfh,18.40
2022-08-30T00:24:00,mfh,18.25
2022-08-30T00:25:00,mfh,18.18
2022-08-30T00:26:00,mfh,18.07
2022-08-30T00:27:00,mfh,18.67
2022-08-30T00:28:00,mfh,18.75
2022-08-30T00:29:00,mfh,18.78
2022-08-30T00:30:00,mfh,19.02
2022-08-30T00:31:00,mfh,18.45
2022-08-30T00:32:00,mfh,18.40
2022-08-30T00:33:00,mfh,18.47
2022-08-30T00:34:00,mfh,18.46
2022-08-30T00:35:00,mfh,18.96
2022-08-30T00:36:00,mfh,20.47
2022-08-30T00:37:00,mfh,20.70
2022-08-30T00:38:00,mfh,20.62
2022-08-30T00:39:00,mfh,20.74
2022-08-30T00:40:00,mfh,20.66
2022-08-30T00:41:00,mfh,18.32
2022-08-30T00:42:00,mfh,18.42
2022-08-30T00:43:00,mfh,19.53
2022-08-30T00:44:00,mfh,19.68
2022-08-30T00:45:00,mfh,19.60
2022-08-30T00:46:00,mfh,19.64
2022-08-30T00:47:00,mfh,18.90
2022-08-30T00:48:00,mfh,18.22
2022-08-30T00:49:00,mfh,18.20
2022-08-30T00:50:00,mfh,18.20
2022-08-30T00:51:00,mfh,18.28
2022-08-30T00:52:00,mfh,18.87
2022-08-30T00:53:00,mfh,18.89
2022-08-30T00:54:00,mfh,18.81
2022-08-30T00:55:00,mfh,18.82
2022-08-30T00:56:00,mfh,18.18
2022-08-30T00:57:00,mfh,18.29
2022-08-30T00:58:00,mfh,18.95
2022-08-30T00:59:00,mfh,18.36
2022-08-30T01:00:00,mfh,18.41
2022-08-30T01:01:00,mfh,19.07
2022-08-30T01:02:00,mfh,19.10
2022-08-30T01:03:00,mfh,19.23
2022-08-30T01:04:00,mfh,18.62
2022-08-30T01:05:00,mfh,18.59
2022-08-30T01:06:00,mfh,18.57
2022-08-30T01:07:00,mfh,18.58
2022-08-30T01:08:00,mfh,19.31
2022-08-30T01:09:00,mfh,19.17
2022-08-30T01:10:00,mfh,19.70
2022-08-30T01:11:00,mfh,19.38
2022-08-30T01:12:00,mfh,19.41
2022-08-30T01:13:00,mfh,19.04
2022-08-30T01:14:00,mfh,18.82
2022-08-30T01:15:00,mfh,18.79
2022-08-30T01:16:00,mfh,18.56
2022-08-30T01:17:00,mfh,19.21
2022-08-30T01:18:00,mfh,19.18
2022-08-30T01:19:00,mfh,19.13
2022-08-30T01:20:00,mfh,19.32
2022-08-30T01:21:00,mfh,18.66
2022-08-30T01:22:00,mfh,18.58
2022-08-30T01:23:00,mfh,18.46
2022-08-30T01:24:00,mfh,18.41
2022-08-30T01:25:00,mfh,18.99
2022-08-30T01:26:00,mfh,18.96
2022-08-30T01:27:00,mfh,18.95
2022-08-30T01:28:00,mfh,18.92
2022-08-30T01:29:00,mfh,18.31
2022-08-30T01:30:00,mfh,19.79
2022-08-30T01:31:00,mfh,20.25
2022-08-30T01:32:00,mfh,19.83
2022-08-30T01:33:00,mfh,19.80
2022-08-30T01:34:00,mfh,21.02
2022-08-30T01:35:00,mfh,18.89
2022-08-30T01:36:00,mfh,18.87
2022-08-30T01:37:00,mfh,18.42
2022-08-30T01:38:00,mfh,18.44
2022-08-30T01:39:00,mfh,18.42
2022-08-30T01:40:00,mfh,18.45
2022-08-30T01:41:00,mfh,18.33
2022-08-30T01:42:00,mfh,19.21
2022-08-30T01:43:00,mfh,18.98
2022-08-30T01:44:00,mfh,19.06
2022-08-30T01:45:00,mfh,19.06
2022-08-30T01:46:00,mfh,19.04
2022-08-30T01:47:00,mfh,18.39
2022-08-30T01:48:00,mfh,18.47
2022-08-30T01:49:00,mfh,18.30
2022-08-30T01:50:00,mfh,19.07
2022-08-30T01:51:00,mfh,19.03
2022-08-30T01:52:00,mfh,18.84
2022-08-30T01:53:00,mfh,18.83
2022-08-30T01:54:00,mfh,18.07
2022-08-30T01:55:00,mfh,18.09
2022-08-30T01:56:00,mfh,18.10
2022-08-30T01:57:00,mfh,18.18
2022-08-30T01:58:00,mfh,18.55
2022-08-30T01:59:00,mfh,18.64
2022-08-30T02:00:00,mfh,18.64
2022-08-30T02:01:00,mfh,18.76
2022-08-30T02:02:00,mfh,18.82
2022-08-30T02:03:00,mfh,18.21
2022-08-30T02:04:00,mfh,18.33
2022-08-30T02:05:00,mfh,18.29
2022-08-30T02:06:00,mfh,18.48
2022-08-30T02:07:00,mfh,19.24
2022-08-30T02:08:00,mfh,19.06
2022-08-30T02:09:00,mfh,19.61
2022-08-30T02:10:00,mfh,19.28
2022-08-30T02:11:00,mfh,18.55
2022-08-30T02:12:00,mfh,18.53
2022-08-30T02:13:00,mfh,18.53
2022-08-30T02:14:00,mfh,18.61
2022-08-30T02:15:00,mfh,18.75
2022-08-30T02:16:00,mfh,19.38
2022-08-30T02:17:00,mfh,19.34
2022-08-30T02:18:00,mfh,19.34
2022-08-30T02:19:00,mfh,19.33
2022-08-30T02:20:00,mfh,18.62
2022-08-30T02:21:00,mfh,18.61
2022-08-30T02:22:00,mfh,18.42
2022-08-30T02:23:00,mfh,18.41
2022-08-30T02:24:00,mfh,18.93
2022-08-30T02:25:00,mfh,20.46
2022-08-30T02:26:00,mfh,21.03
2022-08-30T02:27:00,mfh,20.57
2022-08-30T02:28:00,mfh,20.18
2022-08-30T02:29:00,mfh,19.90
2022-08-30T02:30:00,mfh,18.25
2022-08-30T02:31:00,mfh,18.32
2022-08-30T02:32:00,mfh,18.25
2022-08-30T02:33:00,mfh,19.17
2022-08-30T02:34:00,mfh,19.66
2022-08-30T02:35:00,mfh,19.19
2022-08-30T02:36:00,mfh,18.45
2022-08-30T02:37:00,mfh,18.45
2022-08-30T02:38:00,mfh,18.47
2022-08-30T02:39:00,mfh,18.36
2022-08-30T02:40:00,mfh,18.77
2022-08-30T02:41:00,mfh,19.00
2022-08-30T02:42:00,mfh,19.23
2022-08-30T02:43:00,mfh,20.04
2022-08-30T02:44:00,mfh,18.67
2022-08-30T02:45:00,mfh,18.59
2022-08-30T02:46:00,mfh,18.59
2022-08-30T02:47:00,mfh,18.54
2022-08-30T02:48:00,mfh,18.58
2022-08-30T02:49:00,mfh,19.09
2022-08-30T02:50:00,mfh,19.13
2022-08-30T02:51:00,mfh,19.05
2022-08-30T02:52:00,mfh,19.19
2022-08-30T02:53:00,mfh,18.45
2022-08-30T02:54:00,mfh,18.25
2022-08-30T02:55:00,mfh,18.20
2022-08-30T02:56:00,mfh,19.08
2022-08-30T02:57:00,mfh,18.32
2022-08-30T02:58:00,mfh,18.83
2022-08-30T02:59:00,mfh,18.85
2022-08-30T03:00:00,mfh,18.94
2022-08-30T03:01:00,mfh,18.24
2022-08-30T03:02:00,mfh,18.33
2022-08-30T03:03:00,mfh,18.31
2022-08-30T03:04:00,mfh,18.30
2022-08-30T03:05:00,mfh,18.30
2022-08-30T03:06:00,mfh,18.87
2022-08-30T03:07:00,mfh,19.88
2022-08-30T03:08:00,mfh,18.85
2022-08-30T03:09:00,mfh,18.15
2022-08-30T03:10:00,mfh,18.14
2022-08-30T03:11:00,mfh,18.23
2022-08-30T03:12:00,mfh,18.21
2022-08-30T03:13:00,mfh,18.78
2022-08-30T03:14:00,mfh,18.85
2022-08-30T03:15:00,mfh,19.15
2022-08-30T03:16:00,mfh,19.11
2022-08-30T03:17:00,mfh,19.11
2022-08-30T03:18:00,mfh,18.34
2022-08-30T03:19:00,mfh,18.35
2022-08-30T03:20:00,mfh,18.43
2022-08-30T03:21:00,mfh,19.90
2022-08-30T03:22:00,mfh,20.89
2022-08-30T03:23:00,mfh,20.53
2022-08-30T03:24:00,mfh,20.54
2022-08-30T03:25:00,mfh,20.59
2022-08-30T03:26:00,mfh,18.24
2022-08-30T03:27:00,mfh,18.94
2022-08-30T03:28:00,mfh,18.08
2022-08-30T03:29:00,mfh,18.14
2022-08-30T03:30:00,mfh,18.16
2022-08-30T03:31:00,mfh,18.74
2022-08-30T03:32:00,mfh,19.30
2022-08-30T03:33:00,mfh,18.64
2022-08-30T03:34:00,mfh,18.70
2022-08-30T03:35:00,mfh,18.00
2022-08-30T03:36:00,mfh,18.00
2022-08-30T03:37:00,mfh,17.98
2022-08-30T03:38:00,mfh,18.72
2022-08-30T03:39:00,mfh,18.79
2022-08-30T03:40:00,mfh,18.72
2022-08-30T03:41:00,mfh,18.67
2022-08-30T03:42:00,mfh,20.89
2022-08-30T03:43:00,mfh,18.85
2022-08-30T03:44:00,mfh,18.95
2022-08-30T03:45:00,mfh,19.39
2022-08-30T03:46:00,mfh,18.19
2022-08-30T03:47:00,mfh,18.46
2022-08-30T03:48:00,mfh,19.07
2022-08-30T03:49:00,mfh,19.07
2022-08-30T03:50:00,mfh,18.99
2022-08-30T03:51:00,mfh,19.00
2022-08-30T03:52:00,mfh,18.32
2022-08-30T03:53:00,mfh,18.40
2022-08-30T03:54:00,mfh,18.37
2022-08-30T03:55:00,mfh,18.23
2022-08-30T03:56:00,mfh,19.51
2022-08-30T03:57:00,mfh,20.42
2022-08-30T03:58:00,mfh,19.43
2022-08-30T03:59:00,mfh,19.27
2022-08-30T04:00:00,mfh,18.48
2022-08-30T04:01:00,mfh,18.43
2022-08-30T04:02:00,mfh,18.37
2022-08-30T04:03:00,mfh,18.87
2022-08-30T04:04:00,mfh,19.04
2022-08-30T04:05:00,mfh,19.16
2022-08-30T04:06:00,mfh,19.20
2022-08-30T04:07:00,mfh,20.07
2022-08-30T04:08:00,mfh,18.43
2022-08-30T04:09:00,mfh,18.45
2022-08-30T04:10:00,mfh,18.47
2022-08-30T04:11:00,mfh,18.43
2022-08-30T04:12:00,mfh,18.75
2022-08-30T04:13:00,mfh,19.07
2022-08-30T04:14:00,mfh,19.15
2022-08-30T04:15:00,mfh,19.20
2022-08-30T04:16:00,mfh,18.51
2022-08-30T04:17:00,mfh,18.43
2022-08-30T04:18:00,mfh,19.91
2022-08-30T04:19:00,mfh,20.68
2022-08-30T04:20:00,mfh,20.22
2022-08-30T04:21:00,mfh,21.38
2022-08-30T04:22:00,mfh,20.83
2022-08-30T04:23:00,mfh,19.21
2022-08-30T04:24:00,mfh,18.60
2022-08-30T04:25:00,mfh,18.80
2022-08-30T04:26:00,mfh,18.73
2022-08-30T04:27:00,mfh,18.85
2022-08-30T04:28:00,mfh,18.69
2022-08-30T04:29:00,mfh,19.35
2022-08-30T04:30:00,mfh,19.16
2022-08-30T04:31:00,mfh,19.18
2022-08-30T04:32:00,mfh,18.60
2022-08-30T04:33:00,mfh,18.59
2022-08-30T04:34:00,mfh,18.60
2022-08-30T04:35:00,mfh,18.52
2022-08-30T04:36:00,mfh,18.53
2022-08-30T04:37:00,mfh,19.19
2022-08-30T04:38:00,mfh,19.17
2022-08-30T04:39:00,mfh,19.11
2022-08-30T04:40:00,mfh,19.15
2022-08-30T04:41:00,mfh,18.48
2022-08-30T04:42:00,mfh,18.45
2022-08-30T04:43:00,mfh,18.60
2022-08-30T04:44:00,mfh,19.27
2022-08-30T04:45:00,mfh,28.08
2022-08-30T04:46:00,mfh,29.13
2022-08-30T04:47:00,mfh,29.14
2022-08-30T04:48:00,mfh,29.10
2022-08-30T04:49:00,mfh,28.33
2022-08-30T04:50:00,mfh,28.43
2022-08-30T04:51:00,mfh,28.52
2022-08-30T04:52:00,mfh,28.42
2022-08-30T04:53:00,mfh,28.38
2022-08-30T04:54:00,mfh,29.00
2022-08-30T04:55:00,mfh,28.85
2022-08-30T04:56:00,mfh,29.14
2022-08-30T04:57:00,mfh,28.87
2022-08-30T04:58:00,mfh,28.14
2022-08-30T04:59:00,mfh,28.15
2022-08-30T05:00:00,mfh,28.32
2022-08-30T05:01:00,mfh,41.03
2022-08-30T05:02:00,mfh,43.16
2022-08-30T05:03:00,mfh,43.72
2022-08-30T05:04:00,mfh,43.58
2022-08-30T05:05:00,mfh,44.45
2022-08-30T05:06:00,mfh,42.95
2022-08-30T05:07:00,mfh,42.95
2022-08-30T05:08:00,mfh,42.88
2022-08-30T05:09:00,mfh,42.90
2022-08-30T05:10:00,mfh,44.20
2022-08-30T05:11:00,mfh,43.86
2022-08-30T05:12:00,mfh,43.87
2022-08-30T05:13:00,mfh,44.13
2022-08-30T05:14:00,mfh,43.48
2022-08-30T05:15:00,mfh,45.02
2022-08-30T05:16:00,mfh,44.92
2022-08-30T05:17:00,mfh,44.98
2022-08-30T05:18:00,mfh,45.64
2022-08-30T05:19:00,mfh,45.97
2022-08-30T05:20:00,mfh,44.69
2022-08-30T05:21:00,mfh,44.88
2022-08-30T05:22:00,mfh,44.92
2022-08-30T05:23:00,mfh,44.08
2022-08-30T05:24:00,mfh,44.02
2022-08-30T05:25:00,mfh,43.95
2022-08-30T05:26:00,mfh,44.56
2022-08-30T05:27:00,mfh,45.06
2022-08-30T05:28:00,mfh,44.73
2022-08-30T05:29:00,mfh,44.80
2022-08-30T05:30:00,mfh,44.02
2022-08-30T05:31:00,mfh,44.11
2022-08-30T05:32:00,mfh,43.86
2022-08-30T05:33:00,mfh,43.54
2022-08-30T05:34:00,mfh,43.92
2022-08-30T05:35:00,mfh,44.36
2022-08-30T05:36:00,mfh,44.53
2022-08-30T05:37:00,mfh,44.43
2022-08-30T05:38:00,mfh,44.62
2022-08-30T05:39:00,mfh,43.90
2022-08-30T05:40:00,mfh,43.73
2022-08-30T05:41:00,mfh,43.75
2022-08-30T05:42:00,mfh,43.78
2022-08-30T05:43:00,mfh,44.40
2022-08-30T05:44:00,mfh,44.52
2022-08-30T05:45:00,mfh,45.11
2022-08-30T05:46:00,mfh,44.52
2022-08-30T05:47:00,mfh,43.78
2022-08-30T05:48:00,mfh,43.92
2022-08-30T05:49:00,mfh,44.03
2022-08-30T05:50:00,mfh,44.04
2022-08-30T05:51:00,mfh,44.50
2022-08-30T05:52:00,mfh,44.94
2022-08-30T05:53:00,mfh,44.81
2022-08-30T05:54:00,mfh,44.78
2022-08-30T05:55:00,mfh,44.04
2022-08-30T05:56:00,mfh,43.96
2022-08-30T05:57:00,mfh,43.91
2022-08-30T05:58:00,mfh,44.48
2022-08-30T05:59:00,mfh,44.02
2022-08-30T06:00:00,mfh,45.16
2022-08-30T06:01:00,mfh,48.70
2022-08-30T06:02:00,mfh,48.60
2022-08-30T06:03:00,mfh,48.44
2022-08-30T06:04:00,mfh,47.44
2022-08-30T06:05:00,mfh,47.61
2022-08-30T06:06:00,mfh,47.66
2022-08-30T06:07:00,mfh,47.74
2022-08-30T06:08:00,mfh,48.31
2022-08-30T06:09:00,mfh,48.37
2022-08-30T06:10:00,mfh,48.40
2022-08-30T06:11:00,mfh,48.20
2022-08-30T06:12:00,mfh,47.68
2022-08-30T06:13:00,mfh,48.52
2022-08-30T06:14:00,mfh,48.52
2022-08-30T06:15:00,mfh,48.79
2022-08-30T06:16:00,mfh,49.74
2022-08-30T06:17:00,mfh,50.08
2022-08-30T06:18:00,mfh,48.19
2022-08-30T06:19:00,mfh,49.42
2022-08-30T06:20:00,mfh,49.60
2022-08-30T06:21:00,mfh,49.52
2022-08-30T06:22:00,mfh,48.73
2022-08-30T06:23:00,mfh,49.23
2022-08-30T06:24:00,mfh,49.58
2022-08-30T06:25:00,mfh,49.56
2022-08-30T06:26:00,mfh,50.13
2022-08-30T06:27:00,mfh,51.87
2022-08-30T06:28:00,mfh,51.29
2022-08-30T06:29:00,mfh,51.23
2022-08-30T06:30:00,mfh,51.09
2022-08-30T06:31:00,mfh,50.57
2022-08-30T06:32:00,mfh,49.77
2022-08-30T06:33:00,mfh,71.56
2022-08-30T06:34:00,mfh,72.89
2022-08-30T06:35:00,mfh,73.87
2022-08-30T06:36:00,mfh,71.96
2022-08-30T06:37:00,mfh,71.98
2022-08-30T06:38:00,mfh,71.52
2022-08-30T06:39:00,mfh,71.61
2022-08-30T06:40:00,mfh,71.50
2022-08-30T06:41:00,mfh,70.83
2022-08-30T06:42:00,mfh,63.58
2022-08-30T06:43:00,mfh,63.87
2022-08-30T06:44:00,mfh,63.77
2022-08-30T06:45:00,mfh,56.29
2022-08-30T06:46:00,mfh,55.78
2022-08-30T06:47:00,mfh,49.91
2022-08-30T06:48:00,mfh,50.98
2022-08-30T06:49:00,mfh,50.88
2022-08-30T06:50:00,mfh,50.75
2022-08-30T06:51:00,mfh,50.86
2022-08-30T06:52:00,mfh,51.44
2022-08-30T06:53:00,mfh,51.01
2022-08-30T06:54:00,mfh,50.47
2022-08-30T06:55:00,mfh,50.56
2022-08-30T06:56:00,mfh,51.69
2022-08-30T06:57:00,mfh,50.95
2022-08-30T06:58:00,mfh,51.84
2022-08-30T06:59:00,mfh,51.84
2022-08-30T07:00:00,mfh,51.80
2022-08-30T07:01:00,mfh,51.73
2022-08-30T07:02:00,mfh,51.71
2022-08-30T07:03:00,mfh,51.09
2022-08-30T07:04:00,mfh,51.23
2022-08-30T07:05:00,mfh,50.87
2022-08-30T07:06:00,mfh,51.45
2022-08-30T07:07:00,mfh,51.49
2022-08-30T07:08:00,mfh,52.76
2022-08-30T07:09:00,mfh,52.05
2022-08-30T07:10:00,mfh,52.86
2022-08-30T07:11:00,mfh,74.13
2022-08-30T07:12:00,mfh,75.37
2022-08-30T07:13:00,mfh,74.75
2022-08-30T07:14:00,mfh,75.39
2022-08-30T07:15:00,mfh,75.90
2022-08-30T07:16:00,mfh,75.60
2022-08-30T07:17:00,mfh,75.43
2022-08-30T07:18:00,mfh,74.45
2022-08-30T07:19:00,mfh,74.16
2022-08-30T07:20:00,mfh,65.38
2022-08-30T07:21:00,mfh,65.29
2022-08-30T07:22:00,mfh,57.74
2022-08-30T07:23:00,mfh,57.88
2022-08-30T07:24:00,mfh,58.12
2022-08-30T07:25:00,mfh,52.20
2022-08-30T07:26:00,mfh,52.04
2022-08-30T07:27:00,mfh,52.08
2022-08-30T07:28:00,mfh,52.16
2022-08-30T07:29:00,mfh,51.86
2022-08-30T07:30:00,mfh,51.54
2022-08-30T07:31:00,mfh,51.88
2022-08-30T07:32:00,mfh,52.19
2022-08-30T07:33:00,mfh,52.21
2022-08-30T07:34:00,mfh,52.08
2022-08-30T07:35:00,mfh,52.25
2022-08-30T07:36:00,mfh,52.04
2022-08-30T07:37:00,mfh,52.14
2022-08-30T07:38:00,mfh,51.34
2022-08-30T07:39:00,mfh,51.15
2022-08-30T07:40:00,mfh,51.71
2022-08-30T07:41:00,mfh,52.37
2022-08-30T07:42:00,mfh,51.71
2022-08-30T07:43:00,mfh,52.09
2022-08-30T07:44:00,mfh,52.75
2022-08-30T07:45:00,mfh,52.11
2022-08-30T07:46:00,mfh,52.31
2022-08-30T07:47:00,mfh,51.83
2022-08-30T07:48:00,mfh,51.90
2022-08-30T07:49:00,mfh,52.36
2022-08-30T07:50:00,mfh,52.53
2022-08-30T07:51:00,mfh,52.50
2022-08-30T07:52:00,mfh,52.69
2022-08-30T07:53:00,mfh,53.30
2022-08-30T07:54:00,mfh,53.15
2022-08-30T07:55:00,mfh,53.11
2022-08-30T07:56:00,mfh,53.76
2022-08-30T07:57:00,mfh,53.33
2022-08-30T07:58:00,mfh,54.60
2022-08-30T07:59:00,mfh,53.89
2022-08-30T08:00:00,mfh,53.32
2022-08-30T08:01:00,mfh,54.01
2022-08-30T08:02:00,mfh,53.61
2022-08-30T08:03:00,mfh,53.08
2022-08-30T08:04:00,mfh,53.16
2022-08-30T08:05:00,mfh,51.58
2022-08-30T08:06:00,mfh,51.70
2022-08-30T08:07:00,mfh,51.47
2022-08-30T08:08:00,mfh,51.75
2022-08-30T08:09:00,mfh,52.30
2022-08-30T08:10:00,mfh,55.77
2022-08-30T08:11:00,mfh,54.59
2022-08-30T08:12:00,mfh,54.64
2022-08-30T08:13:00,mfh,54.79
2022-08-30T08:14:00,mfh,52.09
2022-08-30T08:15:00,mfh,52.44
2022-08-30T08:16:00,mfh,52.59
2022-08-30T08:17:00,mfh,51.49
2022-08-30T08:18:00,mfh,52.17
2022-08-30T08:19:00,mfh,53.29
2022-08-30T08:20:00,mfh,52.73
2022-08-30T08:21:00,mfh,52.51
2022-08-30T08:22:00,mfh,63.91
2022-08-30T08:23:00,mfh,64.32
2022-08-30T08:24:00,mfh,63.60
2022-08-30T08:25:00,mfh,62.58
2022-08-30T08:26:00,mfh,63.62
2022-08-30T08:27:00,mfh,64.11
2022-08-30T08:28:00,mfh,64.49
2022-08-30T08:29:00,mfh,64.86
2022-08-30T08:30:00,mfh,64.22
2022-08-30T08:31:00,mfh,63.78
2022-08-30T08:32:00,mfh,63.64
2022-08-30T08:33:00,mfh,63.06
2022-08-30T08:34:00,mfh,63.65
2022-08-30T08:35:00,mfh,64.46
2022-08-30T08:36:00,mfh,64.74
2022-08-30T08:37:00,mfh,64.17
2022-08-30T08:38:00,mfh,64.23
2022-08-30T08:39:00,mfh,63.90
2022-08-30T08:40:00,mfh,63.55
2022-08-30T08:41:00,mfh,64.04
2022-08-30T08:42:00,mfh,63.32
2022-08-30T08:43:00,mfh,62.95
2022-08-30T08:44:00,mfh,63.09
2022-08-30T08:45:00,mfh,63.66
2022-08-30T08:46:00,mfh,63.54
2022-08-30T08:47:00,mfh,63.47
2022-08-30T08:48:00,mfh,63.45
2022-08-30T08:49:00,mfh,63.84
2022-08-30T08:50:00,mfh,62.71
2022-08-30T08:51:00,mfh,63.40
2022-08-30T08:52:00,mfh,62.54
2022-08-30T08:53:00,mfh,62.48
2022-08-30T08:54:00,mfh,63.25
2022-08-30T08:55:00,mfh,63.19
2022-08-30T08:56:00,mfh,63.03
2022-08-30T08:57:00,mfh,63.03
2022-08-30T08:58:00,mfh,63.22
2022-08-30T08:59:00,mfh,62.48
2022-08-30T09:00:00,mfh,62.45
2022-08-30T09:01:00,mfh,62.58
2022-08-30T09:02:00,mfh,63.16
2022-08-30T09:03:00,mfh,63.43
2022-08-30T09:04:00,mfh,64.50
2022-08-30T09:05:00,mfh,63.02
2022-08-30T09:06:00,mfh,65.23
2022-08-30T09:07:00,mfh,64.23
2022-08-30T09:08:00,mfh,64.56
2022-08-30T09:09:00,mfh,63.63
2022-08-30T09:10:00,mfh,61.84
2022-08-30T09:11:00,mfh,61.91
2022-08-30T09:12:00,mfh,62.52
2022-08-30T09:13:00,mfh,62.77
2022-08-30T09:14:00,mfh,62.67
2022-08-30T09:15:00,mfh,62.61
2022-08-30T09:16:00,mfh,62.83
2022-08-30T09:17:00,mfh,62.70
2022-08-30T09:18:00,mfh,62.02
2022-08-30T09:19:00,mfh,62.24
2022-08-30T09:20:00,mfh,61.96
2022-08-30T09:21:00,mfh,62.62
2022-08-30T09:22:00,mfh,62.62
2022-08-30T09:23:00,mfh,62.60
2022-08-30T09:24:00,mfh,62.64
2022-08-30T09:25:00,mfh,62.57
2022-08-30T09:26:00,mfh,62.61
2022-08-30T09:27:00,mfh,61.87
2022-08-30T09:28:00,mfh,62.53
2022-08-30T09:29:00,mfh,62.62
2022-08-30T09:30:00,mfh,63.55
2022-08-30T09:31:00,mfh,63.26
2022-08-30T09:32:00,mfh,62.55
2022-08-30T09:33:00,mfh,62.45
2022-08-30T09:34:00,mfh,62.31
2022-08-30T09:35:00,mfh,62.40
2022-08-30T09:36:00,mfh,61.97
2022-08-30T09:37:00,mfh,61.68
2022-08-30T09:38:00,mfh,61.60
2022-08-30T09:39:00,mfh,62.25
2022-08-30T09:40:00,mfh,61.95
2022-08-30T09:41:00,mfh,61.96
2022-08-30T09:42:00,mfh,62.27
2022-08-30T09:43:00,mfh,62.34
2022-08-30T09:44:00,mfh,62.25
2022-08-30T09:45:00,mfh,61.38
2022-08-30T09:46:00,mfh,61.51
2022-08-30T09:47:00,mfh,61.40
2022-08-30T09:48:00,mfh,62.01
2022-08-30T09:49:00,mfh,62.05
2022-08-30T09:50:00,mfh,63.14
2022-08-30T09:51:00,mfh,62.94
2022-08-30T09:52:00,mfh,62.11
2022-08-30T09:53:00,mfh,62.25
2022-08-30T09:54:00,mfh,61.55
2022-08-30T09:55:00,mfh,61.50
2022-08-30T09:56:00,mfh,61.54
2022-08-30T09:57:00,mfh,61.96
2022-08-30T09:58:00,mfh,62.09
2022-08-30T09:59:00,mfh,63.85
2022-08-30T10:00:00,mfh,64.31
2022-08-30T10:01:00,mfh,64.41
2022-08-30T10:02:00,mfh,64.20
2022-08-30T10:03:00,mfh,63.54
2022-08-30T10:04:00,mfh,61.78
2022-08-30T10:05:00,mfh,61.79
2022-08-30T10:06:00,mfh,62.68
2022-08-30T10:07:00,mfh,63.30
2022-08-30T10:08:00,mfh,62.91
2022-08-30T10:09:00,mfh,62.88
2022-08-30T10:10:00,mfh,63.38
2022-08-30T10:11:00,mfh,63.11
2022-08-30T10:12:00,mfh,62.81
2022-08-30T10:13:00,mfh,61.99
2022-08-30T10:14:00,mfh,61.96
2022-08-30T10:15:00,mfh,62.68
2022-08-30T10:16:00,mfh,62.73
2022-08-30T10:17:00,mfh,62.68
2022-08-30T10:18:00,mfh,62.64
2022-08-30T10:19:00,mfh,62.46
2022-08-30T10:20:00,mfh,62.46
2022-08-30T10:21:00,mfh,62.43
2022-08-30T10:22:00,mfh,61.83
2022-08-30T10:23:00,mfh,61.85
2022-08-30T10:24:00,mfh,62.51
2022-08-30T10:25:00,mfh,62.39
2022-08-30T10:26:00,mfh,63.41
2022-08-30T10:27:00,mfh,63.06
2022-08-30T10:28:00,mfh,63.16
2022-08-30T10:29:00,mfh,63.34
2022-08-30T10:30:00,mfh,62.83
2022-08-30T10:31:00,mfh,62.57
2022-08-30T10:32:00,mfh,62.53
2022-08-30T10:33:00,mfh,63.54
2022-08-30T10:34:00,mfh,63.05
2022-08-30T10:35:00,mfh,63.23
2022-08-30T10:36:00,mfh,63.78
2022-08-30T10:37:00,mfh,63.17
2022-08-30T10:38:00,mfh,63.20
2022-08-30T10:39:00,mfh,62.83
2022-08-30T10:40:00,mfh,62.48
2022-08-30T10:41:00,mfh,63.33
2022-08-30T10:42:00,mfh,62.46
2022-08-30T10:43:00,mfh,63.10
2022-08-30T10:44:00,mfh,63.13
2022-08-30T10:45:00,mfh,63.25
2022-08-30T10:46:00,mfh,63.44
2022-08-30T10:47:00,mfh,63.43
2022-08-30T10:48:00,mfh,62.49
2022-08-30T10:49:00,mfh,62.55
2022-08-30T10:50:00,mfh,62.66
2022-08-30T10:51:00,mfh,63.34
2022-08-30T10:52:00,mfh,63.29
2022-08-30T10:53:00,mfh,63.16
2022-08-30T10:54:00,mfh,63.77
2022-08-30T10:55:00,mfh,65.42
2022-08-30T10:56:00,mfh,65.87
2022-08-30T10:57:00,mfh,65.14
2022-08-30T10:58:00,mfh,65.26
2022-08-30T10:59:00,mfh,64.41
2022-08-30T11:00:00,mfh,62.67
2022-08-30T11:01:00,mfh,63.25
2022-08-30T11:02:00,mfh,63.22
2022-08-30T11:03:00,mfh,63.21
2022-08-30T11:04:00,mfh,63.19
2022-08-30T11:05:00,mfh,63.34
2022-08-30T11:06:00,mfh,62.52
2022-08-30T11:07:00,mfh,62.47
2022-08-30T11:08:00,mfh,62.48
2022-08-30T11:09:00,mfh,62.89
2022-08-30T11:10:00,mfh,62.98
2022-08-30T11:11:00,mfh,63.02
2022-08-30T11:12:00,mfh,63.36
2022-08-30T11:13:00,mfh,63.43
2022-08-30T11:14:00,mfh,63.10
2022-08-30T11:15:00,mfh,62.68
2022-08-30T11:16:00,mfh,62.76
2022-08-30T11:17:00,mfh,62.80
2022-08-30T11:18:00,mfh,62.72
2022-08-30T11:19:00,mfh,63.43
2022-08-30T11:20:00,mfh,63.28
2022-08-30T11:21:00,mfh,63.34
2022-08-30T11:22:00,mfh,63.42
2022-08-30T11:23:00,mfh,63.70
2022-08-30T11:24:00,mfh,63.08
2022-08-30T11:25:00,mfh,62.96
2022-08-30T11:26:00,mfh,62.85
2022-08-30T11:27:00,mfh,63.17
2022-08-30T11:28:00,mfh,63.77
2022-08-30T11:29:00,mfh,63.88
2022-08-30T11:30:00,mfh,63.86
2022-08-30T11:31:00,mfh,63.97
2022-08-30T11:32:00,mfh,64.75
2022-08-30T11:33:00,mfh,63.04
2022-08-30T11:34:00,mfh,63.23
2022-08-30T11:35:00,mfh,63.25
2022-08-30T11:36:00,mfh,63.27
2022-08-30T11:37:00,mfh,64.12
2022-08-30T11:38:00,mfh,64.49
2022-08-30T11:39:00,mfh,63.89
2022-08-30T11:40:00,mfh,64.25
2022-08-30T11:41:00,mfh,63.85
2022-08-30T11:42:00,mfh,63.33
2022-08-30T11:43:00,mfh,63.17
2022-08-30T11:44:00,mfh,62.63
2022-08-30T11:45:00,mfh,63.34
2022-08-30T11:46:00,mfh,63.17
2022-08-30T11:47:00,mfh,63.51
2022-08-30T11:48:00,mfh,63.15
2022-08-30T11:49:00,mfh,62.93
2022-08-30T11:50:00,mfh,62.83
2022-08-30T11:51:00,mfh,62.82
2022-08-30T11:52:00,mfh,62.43
2022-08-30T11:53:00,mfh,64.01
2022-08-30T11:54:00,mfh,64.25
2022-08-30T11:55:00,mfh,65.34
2022-08-30T11:56:00,mfh,64.87
2022-08-30T11:57:00,mfh,63.34
2022-08-30T11:58:00,mfh,63.42
2022-08-30T11:59:00,mfh,63.40
2022-08-30T12:00:00,mfh,63.21
2022-08-30T12:01:00,mfh,62.47
2022-08-30T12:02:00,mfh,62.51
2022-08-30T12:03:00,mfh,64.38
2022-08-30T12:04:00,mfh,63.30
2022-08-30T12:05:00,mfh,63.75
2022-08-30T12:06:00,mfh,63.31
2022-08-30T12:07:00,mfh,63.09
2022-08-30T12:08:00,mfh,63.04
2022-08-30T12:09:00,mfh,63.04
2022-08-30T12:10:00,mfh,62.25
2022-08-30T12:11:00,mfh,62.23
2022-08-30T12:12:00,mfh,62.26
2022-08-30T12:13:00,mfh,63.31
2022-08-30T12:14:00,mfh,63.02
2022-08-30T12:15:00,mfh,62.94
2022-08-30T12:16:00,mfh,62.66
2022-08-30T12:17:00,mfh,62.64
2022-08-30T12:18:00,mfh,62.63
2022-08-30T12:19:00,mfh,62.46
2022-08-30T12:20:00,mfh,62.86
2022-08-30T12:21:00,mfh,62.97
2022-08-30T12:22:00,mfh,63.56
2022-08-30T12:23:00,mfh,63.65
2022-08-30T12:24:00,mfh,63.97
2022-08-30T12:25:00,mfh,63.61
2022-08-30T12:26:00,mfh,64.32
2022-08-30T12:27:00,mfh,65.45
2022-08-30T12:28:00,mfh,64.42
2022-08-30T12:29:00,mfh,64.55
2022-08-30T12:30:00,mfh,64.66
2022-08-30T12:31:00,mfh,65.54
2022-08-30T12:32:00,mfh,64.29
2022-08-30T12:33:00,mfh,63.31
2022-08-30T12:34:00,mfh,63.57
2022-08-30T12:35:00,mfh,63.03
2022-08-30T12:36:00,mfh,63.66
2022-08-30T12:37:00,mfh,63.47
2022-08-30T12:38:00,mfh,63.82
2022-08-30T12:39:00,mfh,63.11
2022-08-30T12:40:00,mfh,63.06
2022-08-30T12:41:00,mfh,62.49
2022-08-30T12:42:00,mfh,62.59
2022-08-30T12:43:00,mfh,62.57
2022-08-30T12:44:00,mfh,62.68
2022-08-30T12:45:00,mfh,63.63
2022-08-30T12:46:00,mfh,63.42
2022-08-30T12:47:00,mfh,63.63
2022-08-30T12:48:00,mfh,64.98
2022-08-30T12:49:00,mfh,65.19
2022-08-30T12:50:00,mfh,65.22
2022-08-30T12:51:00,mfh,64.59
2022-08-30T12:52:00,mfh,64.56
2022-08-30T12:53:00,mfh,62.84
2022-08-30T12:54:00,mfh,63.54
2022-08-30T12:55:00,mfh,63.60
2022-08-30T12:56:00,mfh,63.50
2022-08-30T12:57:00,mfh,63.56
2022-08-30T12:58:00,mfh,63.33
2022-08-30T12:59:00,mfh,63.16
2022-08-30T13:00:00,mfh,62.33
2022-08-30T13:01:00,mfh,62.32
2022-08-30T13:02:00,mfh,62.50
2022-08-30T13:03:00,mfh,63.58
2022-08-30T13:04:00,mfh,63.15
2022-08-30T13:05:00,mfh,62.98
2022-08-30T13:06:00,mfh,62.79
2022-08-30T13:07:00,mfh,62.74
2022-08-30T13:08:00,mfh,62.45
2022-08-30T13:09:00,mfh,61.81
2022-08-30T13:10:00,mfh,62.21
2022-08-30T13:11:00,mfh,62.37
2022-08-30T13:12:00,mfh,63.01
2022-08-30T13:13:00,mfh,63.15
2022-08-30T13:14:00,mfh,63.00
2022-08-30T13:15:00,mfh,63.68
2022-08-30T13:16:00,mfh,63.44
2022-08-30T13:17:00,mfh,63.24
2022-08-30T13:18:00,mfh,62.57